Voyager Of The Seas — C6SE5 — position and weather

sailwx.info

Track history (hours):
 
Tides and Currents Weather Stations Pressure Air Temp Water Temp Dewpoint Dewpoint Depression Visibility Wind Speed Wind Dir Waves Ship Positions

Voyager Of The Seas

Operator: Royal Caribbean Cruises Ltd

Last reported at 2018-May-21 10:27 UTC. Time now 2018-May-24 09:56 UTC.
Position N 01°13' E 103°27'.

Type: Passenger vessel. MMSI: 311317000.

Date/timePositionNaut miles runAvg speedWind from/ knotsBaromVisibWave heightAir tempDewpointWater temp
2018-May-21 10:27N 01°13' E 103°27'919.7
2018-May-21 10:00N 01°11' E 103°36'918.4
2018-May-21 09:30N 01°08' E 103°44'1016.7
2018-May-21 08:55N 01°13' E 103°53'3 6.3
2018-May-21 08:30N 01°16' E 103°52'0 0.1
2018-May-21 05:56N 01°16' E 103°52'0 0.0
2018-May-21 05:26N 01°16' E 103°52'0 0.0
2018-May-21 04:44N 01°16' E 103°52'0 0.0
2018-May-21 04:26N 01°16' E 103°52'0 0.0
2018-May-21 03:38N 01°16' E 103°52'0 0.0
2018-May-21 03:08N 01°16' E 103°52'0 0.0
2018-May-21 02:50N 01°16' E 103°52'0 0.0
2018-May-21 02:14N 01°16' E 103°52'0 0.0
2018-May-21 01:59N 01°16' E 103°52'0 0.0
2018-May-21 01:17N 01°16' E 103°52'0 0.0
2018-May-21 00:45N 01°16' E 103°52'0 0.0
2018-May-21 00:29N 01°16' E 103°52'0 0.0
2018-May-20 23:57N 01°16' E 103°52'0 0.0
2018-May-20 23:29N 01°16' E 103°52'2 3.7
2018-May-20 23:00N 01°14' E 103°52'4 6.9
2018-May-20 22:30N 01°11' E 103°51'611.3
2018-May-20 22:00N 01°08' E 103°46'611.4
2018-May-20 21:29N 01°04' E 103°42'510.7
2018-May-20 21:00N 01°04' E 103°36'612.0
2018-May-20 20:30N 01°07' E 103°31'611.4
2018-May-20 20:00N 01°10' E 103°26'611.7
2018-May-20 19:28N 01°14' E 103°21'611.8
2018-May-20 19:00N 01°17' E 103°17'510.9
2018-May-20 18:30N 01°21' E 103°13'  
2018-May-18 12:49N 01°33' E 103°04'818.4
2018-May-18 12:22N 01°28' E 103°11'719.8
2018-May-18 12:00N 01°23' E 103°16'1119.3
2018-May-18 11:26N 01°15' E 103°23'818.9
2018-May-18 11:00N 01°12' E 103°31'1019.2
2018-May-18 10:30N 01°10' E 103°40'916.6
2018-May-18 09:59N 01°11' E 103°49'4 9.3
2018-May-18 09:30N 01°15' E 103°52'1 2.5
2018-May-18 08:59N 01°16' E 103°52'0 0.0
2018-May-18 08:30N 01°16' E 103°52'0 0.0
2018-May-18 07:59N 01°16' E 103°52'0 0.0
2018-May-18 07:26N 01°16' E 103°52'0 0.0
2018-May-18 06:50N 01°16' E 103°52'0 0.0
2018-May-18 06:30N 01°16' E 103°52'0 0.0
2018-May-18 05:54N 01°16' E 103°52'0 0.0
2018-May-18 05:23N 01°16' E 103°52'0 0.0
2018-May-18 04:38N 01°16' E 103°52'0 0.0
2018-May-18 04:18N 01°16' E 103°52'0 0.0
2018-May-18 03:53N 01°16' E 103°52'0 0.0
2018-May-18 03:20N 01°16' E 103°52'0 0.0
2018-May-18 02:53N 01°16' E 103°52'0 0.0
2018-May-18 02:29N 01°16' E 103°52'0 0.0
2018-May-18 01:20N 01°16' E 103°52'0 0.0
2018-May-18 00:47N 01°16' E 103°52'0 0.0
2018-May-17 23:47N 01°16' E 103°52'0 1.0
2018-May-17 23:30N 01°16' E 103°52'3 5.5
2018-May-17 23:00N 01°14' E 103°54'5 9.5
2018-May-17 22:30N 01°11' E 103°50'611.0
2018-May-17 22:00N 01°08' E 103°45'611.5
2018-May-17 21:31N 01°04' E 103°41'611.2
2018-May-17 20:59N 01°05' E 103°35'612.8
2018-May-17 20:30N 01°08' E 103°30'713.2
2018-May-17 19:58N 01°12' E 103°24'612.6
2018-May-17 19:29N 01°15' E 103°19'714.2
2018-May-17 18:58N 01°20' E 103°13'  
2018-May-14 11:05N 01°22' E 103°17'421.1
2018-May-14 10:54N 01°19' E 103°19'921.6
2018-May-14 10:30N 01°14' E 103°26'1020.0
2018-May-14 09:59N 01°11' E 103°36'919.0
2018-May-14 09:30N 01°09' E 103°45'918.0
2018-May-14 09:00N 01°13' E 103°52'3 5.2
2018-May-14 08:30N 01°16' E 103°52'0 0.0
2018-May-14 07:37N 01°16' E 103°52'0 0.0
2018-May-14 07:28N 01°16' E 103°52'0 0.0
2018-May-14 06:52N 01°16' E 103°52'0 0.0
2018-May-14 06:17N 01°16' E 103°52'0 0.0
2018-May-14 05:59N 01°16' E 103°52'0 0.0
2018-May-14 05:17N 01°16' E 103°52'0 0.0
2018-May-14 04:58N 01°16' E 103°52'0 0.0
2018-May-14 04:14N 01°16' E 103°52'0 0.0
2018-May-14 03:58N 01°16' E 103°52'0 0.0
2018-May-14 03:26N 01°16' E 103°52'0 0.0
2018-May-14 02:17N 01°16' E 103°52'0 0.0
2018-May-14 01:56N 01°16' E 103°52'0 0.0
2018-May-14 01:29N 01°16' E 103°52'0 0.0
2018-May-14 00:55N 01°16' E 103°52'0 0.0
2018-May-14 00:28N 01°16' E 103°52'0 0.0
2018-May-13 23:53N 01°16' E 103°52'0 0.1
2018-May-13 23:30N 01°16' E 103°52'3 6.0
2018-May-13 23:00N 01°13' E 103°53'4 8.4
2018-May-13 22:30N 01°11' E 103°50'611.4
2018-May-13 21:59N 01°07' E 103°45'511.3
2018-May-13 21:30N 01°03' E 103°41'610.9
2018-May-13 20:59N 01°05' E 103°35'611.9
2018-May-13 20:30N 01°08' E 103°31'611.4
2018-May-13 19:56N 01°11' E 103°25'511.8
2018-May-13 19:30N 01°14' E 103°21'611.5
2018-May-13 18:59N 01°18' E 103°17'  
2018-May-11 11:53N 01°24' E 103°15'617.2
2018-May-11 11:31N 01°20' E 103°19'916.1
2018-May-11 10:57N 01°14' E 103°26'716.7
2018-May-11 10:30N 01°12' E 103°33'  
Track history (hours):
 
Tides and Currents Weather Stations Pressure Air Temp Water Temp Dewpoint Dewpoint Depression Visibility Wind Speed Wind Dir Waves Ship Positions

Voyager Of The Seas

Operator: Royal Caribbean Cruises Ltd

Last reported at 2018-May-21 10:27 UTC. Time now 2018-May-24 09:56 UTC.
Position N 01°13' E 103°27'.

Type: Passenger vessel. MMSI: 311317000.

Date/timePositionNaut miles runAvg speedWind from/ knotsBaromVisibWave heightAir tempDewpointWater temp
2018-May-21 10:27N 01°13' E 103°27'919.7
2018-May-21 10:00N 01°11' E 103°36'918.4
2018-May-21 09:30N 01°08' E 103°44'1016.7
2018-May-21 08:55N 01°13' E 103°53'3 6.3
2018-May-21 08:30N 01°16' E 103°52'0 0.1
2018-May-21 05:56N 01°16' E 103°52'0 0.0
2018-May-21 05:26N 01°16' E 103°52'0 0.0
2018-May-21 04:44N 01°16' E 103°52'0 0.0
2018-May-21 04:26N 01°16' E 103°52'0 0.0
2018-May-21 03:38N 01°16' E 103°52'0 0.0
2018-May-21 03:08N 01°16' E 103°52'0 0.0
2018-May-21 02:50N 01°16' E 103°52'0 0.0
2018-May-21 02:14N 01°16' E 103°52'0 0.0
2018-May-21 01:59N 01°16' E 103°52'0 0.0
2018-May-21 01:17N 01°16' E 103°52'0 0.0
2018-May-21 00:45N 01°16' E 103°52'0 0.0
2018-May-21 00:29N 01°16' E 103°52'0 0.0
2018-May-20 23:57N 01°16' E 103°52'0 0.0
2018-May-20 23:29N 01°16' E 103°52'2 3.7
2018-May-20 23:00N 01°14' E 103°52'4 6.9
2018-May-20 22:30N 01°11' E 103°51'611.3
2018-May-20 22:00N 01°08' E 103°46'611.4
2018-May-20 21:29N 01°04' E 103°42'510.7
2018-May-20 21:00N 01°04' E 103°36'612.0
2018-May-20 20:30N 01°07' E 103°31'611.4
2018-May-20 20:00N 01°10' E 103°26'611.7
2018-May-20 19:28N 01°14' E 103°21'611.8
2018-May-20 19:00N 01°17' E 103°17'510.9
2018-May-20 18:30N 01°21' E 103°13'  
2018-May-18 12:49N 01°33' E 103°04'818.4
2018-May-18 12:22N 01°28' E 103°11'719.8
2018-May-18 12:00N 01°23' E 103°16'1119.3
2018-May-18 11:26N 01°15' E 103°23'818.9
2018-May-18 11:00N 01°12' E 103°31'1019.2
2018-May-18 10:30N 01°10' E 103°40'916.6
2018-May-18 09:59N 01°11' E 103°49'4 9.3
2018-May-18 09:30N 01°15' E 103°52'1 2.5
2018-May-18 08:59N 01°16' E 103°52'0 0.0
2018-May-18 08:30N 01°16' E 103°52'0 0.0
2018-May-18 07:59N 01°16' E 103°52'0 0.0
2018-May-18 07:26N 01°16' E 103°52'0 0.0
2018-May-18 06:50N 01°16' E 103°52'0 0.0
2018-May-18 06:30N 01°16' E 103°52'0 0.0
2018-May-18 05:54N 01°16' E 103°52'0 0.0
2018-May-18 05:23N 01°16' E 103°52'0 0.0
2018-May-18 04:38N 01°16' E 103°52'0 0.0
2018-May-18 04:18N 01°16' E 103°52'0 0.0
2018-May-18 03:53N 01°16' E 103°52'0 0.0
2018-May-18 03:20N 01°16' E 103°52'0 0.0
2018-May-18 02:53N 01°16' E 103°52'0 0.0
2018-May-18 02:29N 01°16' E 103°52'0 0.0
2018-May-18 01:20N 01°16' E 103°52'0 0.0
2018-May-18 00:47N 01°16' E 103°52'0 0.0
2018-May-17 23:47N 01°16' E 103°52'0 1.0
2018-May-17 23:30N 01°16' E 103°52'3 5.5
2018-May-17 23:00N 01°14' E 103°54'5 9.5
2018-May-17 22:30N 01°11' E 103°50'611.0
2018-May-17 22:00N 01°08' E 103°45'611.5
2018-May-17 21:31N 01°04' E 103°41'611.2
2018-May-17 20:59N 01°05' E 103°35'612.8
2018-May-17 20:30N 01°08' E 103°30'713.2
2018-May-17 19:58N 01°12' E 103°24'612.6
2018-May-17 19:29N 01°15' E 103°19'714.2
2018-May-17 18:58N 01°20' E 103°13'  
2018-May-14 11:05N 01°22' E 103°17'421.1
2018-May-14 10:54N 01°19' E 103°19'921.6
2018-May-14 10:30N 01°14' E 103°26'1020.0
2018-May-14 09:59N 01°11' E 103°36'919.0
2018-May-14 09:30N 01°09' E 103°45'918.0
2018-May-14 09:00N 01°13' E 103°52'3 5.2
2018-May-14 08:30N 01°16' E 103°52'0 0.0
2018-May-14 07:37N 01°16' E 103°52'0 0.0
2018-May-14 07:28N 01°16' E 103°52'0 0.0
2018-May-14 06:52N 01°16' E 103°52'0 0.0
2018-May-14 06:17N 01°16' E 103°52'0 0.0
2018-May-14 05:59N 01°16' E 103°52'0 0.0
2018-May-14 05:17N 01°16' E 103°52'0 0.0
2018-May-14 04:58N 01°16' E 103°52'0 0.0
2018-May-14 04:14N 01°16' E 103°52'0 0.0
2018-May-14 03:58N 01°16' E 103°52'0 0.0
2018-May-14 03:26N 01°16' E 103°52'0 0.0
2018-May-14 02:17N 01°16' E 103°52'0 0.0
2018-May-14 01:56N 01°16' E 103°52'0 0.0
2018-May-14 01:29N 01°16' E 103°52'0 0.0
2018-May-14 00:55N 01°16' E 103°52'0 0.0
2018-May-14 00:28N 01°16' E 103°52'0 0.0
2018-May-13 23:53N 01°16' E 103°52'0 0.1
2018-May-13 23:30N 01°16' E 103°52'3 6.0
2018-May-13 23:00N 01°13' E 103°53'4 8.4
2018-May-13 22:30N 01°11' E 103°50'611.4
2018-May-13 21:59N 01°07' E 103°45'511.3
2018-May-13 21:30N 01°03' E 103°41'610.9
2018-May-13 20:59N 01°05' E 103°35'611.9
2018-May-13 20:30N 01°08' E 103°31'611.4
2018-May-13 19:56N 01°11' E 103°25'511.8
2018-May-13 19:30N 01°14' E 103°21'611.5
2018-May-13 18:59N 01°18' E 103°17'  
2018-May-11 11:53N 01°24' E 103°15'617.2
2018-May-11 11:31N 01°20' E 103°19'916.1
2018-May-11 10:57N 01°14' E 103°26'716.7
2018-May-11 10:30N 01°12' E 103°33'  

Dump ship's entire track history